Tracking 29932 objects as of 3-Dec-2024
HD Live streaming from Space Station
objects crossing your sky now

ONEWEB-0586

Track ONEWEB-0586 now!
10-day predictions
ONEWEB-0586 is classified as:


NORAD ID: 54653
Int'l Code: 2022-166M
Perigee: 1,183.3 km
Apogee: 1,186.4 km
Inclination: 87.9 °
Period: 108.9 minutes
Semi major axis: 7555 km
RCS: Unknown
Launch date: December 8, 2022
Source: United Kingdom (UK)
Launch site: AIR FORCE EASTERN TEST RANGE (AFETR)
Your satellite tracking list
Your tracking list is empty




NASA's NSSDC Master Catalog

Two Line Element Set (TLE):
1 54653U 22166M   24337.75952400 -.00000011  00000-0 -58051-4 0  9998
2 54653  87.9311 355.8457 0002047  92.6617 267.4751 13.21825507 97355
Source of the keplerian elements: AFSPC